CAPE
8 15 32 13 7 0 0 0 0 0 0 0 0 0 0 10 0 0 91 0 0 0 0 0 0 0 1 488 527 595 828 1024 938 472 303 235 262 804 893 786 958 1258 1506 1779 1998 2136 2355 2559 2541 2311 2271 2907 3002 2941 2868 2785 3065 3476 3769 3864 3816 3720 3560 3307 3038 2929 2837 2739 2652 2593 2537 2338 2151 2093 2113 2040 1982 2093 2323 2312 2234 2245 2480 2752 2764 2762 2662
14 28 15 11 16 7 0 0 0 0 0 0 0 0 0 6 0 80 338 59 124 0 0 0 17 0 0 0 0 538 761 850 769 552 444 894 1111 992 863 963 1040 1070 1170 1361 1468 1468 1603 1696 1834 2244 2742 3141 3238 3146 3055 2980 2942 3233 3566 3818 3861 3798 3708 3538 3256 2971 2846 2706 2620 2585 2640 2572 2394 2270 2292 2304 2170 2103 2338 2414 2305 2271 2326 2608 2752 2773 2838
37 12 14 8 31 8 6 0 0 0 0 0 0 0 0 2 2 0 727 417 42 2 0 0 0 0 0 0 0 401 606 708 705 721 850 1123 1244 1222 1267 1283 1321 1357 1614 1830 1641 1650 1878 2135 2557 3016 3410 3385 3365 3325 3219 3174 3126 3032 3380 3697 3841 3854 3770 3639 3415 3140 2887 2759 2671 2586 2604 2698 2626 2416 2284 2279 2273 2180 2351 2692 2662 2536 2466 2450 2657 2736 2777
124 55 34 4 1 2 0 0 0 0 0 0 0 0 0 0 2 0 122 4 0 0 0 0 0 0 0 0 0 0 0 287 481 545 688 961 1157 1538 1915 2435 2456 2143 2535 3207 2598 2032 2410 2967 3077 3189 3441 3550 3491 3435 3406 3383 3280 3170 3099 3358 3656 3742 3694 3660 3608 3421 3128 2923 2859 2702 2537 2560 2632 2557 2346 2213 2208 2258 2337 2745 2928 2859 2734 2561 2550 2706 2739
26 9 19 1 0 5 0 0 0 0 0 0 0 0 0 0 5 35 69 37 0 0 0 0 0 0 0 0 0 0 0 0 103 308 735 1778 2289 2669 3157 3372 3685 3936 4156 4255 4428 3685 3241 3368 3432 3225 3215 3512 3591 3528 3499 3493 3449 3281 3201 3136 3289 3551 3586 3620 3748 3670 3488 3182 3066 2965 2695 2513 2564 2578 2450 2287 2223 2274 2376 2589 2994 3044 2959 2804 2621 2654 2849
37 10 20 5 2 0 0 0 0 3 16 0 2 0 0 0 2 2 80 205 186 2 0 0 0 0 0 0 6 4 0 0 41 501 46 98 1771 2605 2724 2757 2945 3406 3888 4080 4161 4147 3914 3760 3796 3593 3446 3222 3544 3594 3560 3527 3502 3474 3329 3191 3064 3336 3471 3516 3761 3827 3683 3449 3179 3162 3020 2742 2615 2688 2617 2410 2265 2310 2411 2468 2756 3104 3114 2998 2823 2664 2775
20 8 11 19 2 0 0 1 1 1 12 17 0 140 431 89 2 114 92 30 0 4 3 8 1 0 0 0 222 1466 1602 516 1291 1922 2131 2679 2802 2735 2752 2472 2846 3208 3221 3305 3523 3621 3623 3348 3174 3125 3332 3344 3239 3324 3444 3476 3407 3364 3340 3326 3182 3328 3325 3359 3611 3891 3839 3648 3432 3335 3262 3064 2798 2729 2784 2686 2458 2379 2460 2526 2538 2771 3099 3131 3035 2874 2695
1 8 4 3 0 0 0 0 0 3 14 0 19 360 480 448 456 595 53 3 97 158 97 90 1 6 11 1323 2240 2318 2270 2217 2041 1913 2349 3241 3929 4080 4042 4050 3986 4039 3815 3692 4003 3869 3250 2620 2180 2613 2895 2963 3068 3094 2895 2907 3114 3221 3219 3257 3274 3478 3448 3260 3512 3876 3913 3790 3613 3529 3466 3346 3115 2913 2883 2900 2796 2601 2529 2583 2585 2560 2724 2994 3094 3039 2933
7 7 2 3 0 0 3 2 2 15 16 14 142 227 331 544 801 821 740 26 9 0 4 11 64 213 1036 1477 1844 2005 2164 2161 2092 1964 2191 3117 3376 3251 3229 3244 2918 2837 2659 2814 3152 2597 2364 2252 2135 2111 1907 2101 2775 2858 2938 2817 2666 3033 3139 3087 3148 3272 3735 3501 3549 3918 3986 3896 3777 3697 3660 3604 3441 3216 3060 3067 3069 2947 2776 2670 2685 2668 2629 2726 2941 3078 3089
8 5 0 19 5 5 4 3 9 16 14 17 145 442 259 785 932 1103 1066 17 51 151 73 71 352 1035 1070 1114 1350 1679 1988 2005 1989 1944 1962 2076 2513 2747 2828 2446 2523 2912 3424 3687 3970 4373 4492 4631 4655 4493 4468 3609 2755 3693 3928 2689 2667 2643 3062 3236 3173 3123 3985 3820 3694 4000 4134 4059 3962 3876 3862 3835 3765 3603 3382 3273 3317 3320 3150 2921 2759 2753 2764 2762 2816 2951 3107
7 0 16 0 5 6 4 2 9 21 14 6 16 491 514 645 1043 1188 1073 1102 931 586 632 602 852 1016 930 1048 1191 1395 1659 1931 1954 1858 1785 1747 1731 1909 2126 2577 2816 3414 4134 4153 3980 4288 4479 4584 4273 4260 3967 3917 4293 4281 4067 4454 2540 2467 2600 2974 3359 3247 3978 4151 3931 4139 4309 4284 4175 4091 4065 4045 4026 4000 3862 3681 3588 3668 3565 3348 3072 2879 2872 2878 2869 2901 3016
6 1 6 28 9 14 13 10 16 11 8 1 10 222 444 610 998 1086 1027 957 1078 1003 649 688 718 733 752 848 1012 1266 1282 1272 1539 1891 2008 1967 1888 1671 1864 2789 2851 3166 3934 3783 3627 3482 3668 3766 4279 4492 5004 4809 4253 4960 5168 4460 3898 2979 2414 2625 3264 3445 3887 4371 4175 4240 4478 4502 4415 4321 4276 4266 4307 4303 4248 4098 3992 3954 3932 3743 3548 3270 3070 3038 3045 3024 3007
14 5 1 0 6 11 8 7 14 9 8 11 214 373 340 588 790 956 943 807 766 616 502 488 551 699 736 753 978 1101 1172 1453 1577 1742 2135 2256 1972 1898 2469 2905 2863 2654 3100 3313 3111 3030 3508 3879 3764 4295 4478 5119 5373 4513 4520 4357 4104 4141 3547 2780 3194 3614 3744 4480 4329 4322 4518 4667 4637 4563 4503 4495 4584 4658 4576 4438 4286 4260 4210 4066 3872 3664 3407 3263 3253 3293 3265
26 6 10 2 8 0 0 9 14 2 16 22 377 358 183 428 565 759 847 707 618 572 508 409 454 569 760 729 798 1046 1178 1338 1404 1556 1668 1787 1793 1951 2286 3398 2666 2417 3166 3261 3102 3660 3600 3593 3560 3775 4519 4833 5375 5506 4425 4163 4308 4142 4720 3495 3375 3702 3897 4556 4492 4413 4510 4703 4790 4795 4808 4816 4927 4961 4914 4708 4529 4434 4357 4289 4145 3957 3758 3523 3366 3364 3508
17 16 9 6 36 15 0 1 1 0 23 199 265 276 292 311 510 547 700 682 554 520 486 481 454 529 581 589 733 702 776 1071 1280 1333 1513 1849 2014 2052 2084 2490 2486 2323 3113 3090 2966 3556 3382 3191 3176 3592 4189 4485 4852 5340 4930 5581 5713 5597 5538 4626 3649 3806 3978 4547 4626 4554 4552 4751 4939 5159 5145 5109 5128 5168 5170 4975 4765 4591 4502 4403 4303 4168 4008 3841 3646 3459 3361
14 10 8 32 74 0 0 4 20 2 0 20 10 190 371 410 369 363 451 556 512 420 361 477 458 538 496 622 696 690 709 966 1178 1198 1224 1586 1886 1904 2088 2295 2416 2460 2843 3517 2969 2892 2956 3412 3413 3508 4189 4986 5990 5680 4856 5143 5450 5403 5002 5578 4539 4103 3942 4341 4763 4668 4694 4950 5164 5402 5418 5318 5248 5204 5248 5138 4967 4786 4650 4556 4456 4382 4264 4112 3945 3763 3544
8 7 16 8 0 0 0 0 6 0 0 0 4 147 360 338 332 336 271 312 391 340 66 0 222 414 602 760 796 782 675 790 1006 1156 1264 1260 1576 1807 1934 2375 2361 2344 2702 3137 2709 2787 2971 2870 3189 3721 4340 5021 5044 4971 4880 4764 5262 5087 5126 5575 5434 4618 4290 4152 5024 4890 4894 5230 5381 5547 5586 5549 5421 5344 5256 5205 5136 4960 4750 4699 4614 4590 4584 4459 4331 4190 4011
4 0 0 0 0 0 0 0 1 0 0 0 0 178 320 322 279 261 231 0 0 0 0 0 0 0 498 683 727 881 922 894 862 1053 1373 1485 1679 1745 2053 2450 2375 2469 2406 2721 2627 2774 2935 2875 3146 3273 4029 4570 4708 4621 4783 4706 4719 4578 4975 5518 5987 5247 4960 4490 5129 5429 5197 5406 5546 5606 5705 5724 5646 5574 5452 5367 5299 5321 5148 4976 4856 4767 4832 4892 4811 4703 4471
0 5 2 12 0 0 4 0 2 0 0 0 0 62 238 272 187 131 27 0 0 0 0 0 0 0 20 514 648 821 901 988 1038 1189 1301 1202 1342 1741 1974 2603 2525 2460 2564 2523 2945 2999 2803 2343 2726 3126 3360 4074 4174 4184 4366 4612 4327 4411 4709 5656 5832 5831 5633 5458 5257 5704 5703 5620 5730 5670 5823 5807 5841 5798 5680 5638 5463 5456 5415 5338 5187 5037 4989 5135 5142 5085 5008
0 0 0 0 0 0 0 0 1 0 0 0 8 20 79 19 150 151 90 0 0 0 0 0 0 0 0 8 256 661 825 845 1116 1162 1013 1086 1301 1702 1867 2519 2557 2364 2164 2458 2682 2499 2521 2520 2472 2851 3131 3242 3640 3596 3526 3563 4195 4144 4745 4743 5084 5507 5756 5743 5527 5379 6124 7137 6149 5765 5855 5854 5945 5956 5857 5862 5666 5444 5539 5509 5485 5356 5148 5054 5038 5018 4950
0 0 0 0 0 6 0 0 0 0 0 0 4 3 40 78 162 185 142 2 0 0 0 0 0 0 0 0 0 104 670 730 879 1336 1252 1279 1407 1577 1987 2257 2258 1978 1960 2311 2403 2260 2188 2303 2470 2492 2472 2912 3170 4213 3999 3789 4082 4489 4626 5156 5299 4750 4927 5131 5146 5174 5541 6232 5877 5733 5717 5640 5763 5639 5622 5718 5497 5325 5190 5312 5337 5341 5278 5067 4900 4745 4618
0 0 0 0 0 24 10 0 0 0 0 0 0 0 3 16 44 64 59 97 9 0 0 0 0 0 0 0 0 0 221 698 828 1056 1391 1288 1402 1791 1866 2154 2238 1696 2139 2047 2070 1697 2057 2159 2257 2547 2454 2847 3085 3122 3542 3893 4200 4785 4438 4305 5098 4902 4761 5130 4886 4717 4865 5244 5424 5370 5228 5224 5206 5072 5082 5124 5174 5207 5056 4901 4859 4792 4687 4774 4657 4564 4423
0 0 0 0 0 0 0 0 0 0 0 0 0 0 2 15 17 19 42 47 40 12 0 0 0 0 0 0 0 0 0 28 762 947 1225 1469 1341 1438 1685 2132 2496 1890 1596 1916 1965 1904 1926 1995 2251 2324 2972 2499 2477 2765 3387 3760 4179 4122 3973 5308 5000 4460 4404 4615 4843 4907 5362 4983 4951 5319 5259 4900 4827 4794 4788 4682 4685 4674 4686 4668 4554 4508 4383 4195 4263 4211 4102
0 0 0 0 0 0 0 0 0 0 0 0 0 0 0 2 15 14 14 39 35 0 0 0 0 0 0 0 0 0 0 19 292 703 931 1284 1498 1541 1704 2225 2453 2425 2054 2163 1986 2197 2005 1885 1875 1888 1819 1838 2195 2631 2633 3536 3830 3940 4237 4869 4870 4478 4233 4358 4466 4549 4722 4673 4423 4767 5083 5046 4707 4583 4508 4385 4241 4242 4236 4169 4098 4056 4013 3911 3846 3852 3891
0 0 0 0 0 0 0 0 0 0 0 0 0 0 0 0 6 5 0 0 2 2 0 0 0 0 0 0 0 0 0 7 354 697 706 1009 1463 1498 1545 1986 2230 2339 2430 2251 2006 1941 1897 1777 1834 1770 1745 1733 1930 2126 2408 2757 3368 3873 3950 4229 4522 4295 3989 4021 4282 4324 4495 4542 4394 4239 4516 4722 4755 4623 4467 4312 4168 4110 4006 3906 3887 3858 3861 3855 3850 3791 3709
0 0 0 0 0 0 0 0 0 0 0 0 0 0 0 0 5 2 0 0 0 0 0 0 0 0 0 0 0 0 0 63 546 635 542 910 1134 1262 1436 2009 1993 2013 2007 1979 1970 1864 1708 1588 1740 1756 1555 1628 1731 1841 1904 2266 2795 3082 3248 3527 4042 4122 3975 3880 3952 4106 4276 4391 4257 4064 4072 4271 4371 4381 4375 4230 4016 3884 3802 3591 3472 3562 3631 3546 3506 3554 3618
0 0 0 0 0 0 0 0 0 0 0 0 0 0 0 0 1 3 0 0 0 0 0 0 0 0 0 0 0 0 3 308 548 331 507 966 1178 1240 1243 2106 2031 1769 1678 1692 1634 1662 1857 1571 1419 1415 1406 1426 1598 1792 1888 1924 2453 2676 2798 2872 3226 3796 3805 3787 3728 3735 3988 4076 4071 3924 3843 3775 3896 3896 3958 3876 3849 3786 3662 3540 3412 3309 3168 3053 2877 2976 2998
0 0 0 0 0 0 0 0 0 0 0 0 0 0 0 0 0 0 0 0 0 1 3 0 0 0 0 0 0 0 409 593 500 528 569 909 1212 1214 1765 1624 1467 1426 1334 1238 1217 1394 1573 1395 1274 1327 1384 1285 1303 1515 1677 1908 2199 2424 2496 2552 2641 2862 3155 3398 3524 3438 3598 3883 3875 3738 3607 3594 3524 3542 3550 3538 3503 3430 3387 3375 3340 2742 876 120 105 87 68
0 0 0 0 0 0 0 0 0 0 0 0 0 0 0 0 0 0 0 0 0 0 0 0 0 0 0 0 0 215 522 366 472 606 652 898 1264 1597 1567 1494 1402 1294 1185 1065 918 798 917 737 618 745 960 1226 1183 1314 1440 1760 1810 2056 2255 2377 2412 2083 1655 2352 2930 3164 3204 3323 3558 3715 3688 3546 3113 3012 3211 3347 3348 3253 3242 3249 2416 584 0 0 0 0 0
0 0 0 0 0 0 0 0 0 0 0 0 0 0 0 0 0 0 0 0 0 0 0 0 0 0 0 0 0 484 374 520 610 625 806 940 1138 1238 1313 1230 1342 1182 1049 931 811 639 687 676 520 654 862 1105 913 1130 1347 1451 1581 1653 1966 2048 1992 1422 1393 1515 2004 1924 1131 882 955 1413 1278 940 958 980 1041 1600 1990 1935 1566 429 46 0 0 0 0 0 0
0 0 0 0 0 0 0 0 0 0 0 0 0 0 0 0 0 0 0 0 0 0 0 0 0 0 0 0 0 530 725 823 810 759 1096 973 988 1163 1272 1181 1133 1089 963 819 689 572 536 492 433 514 597 666 861 1175 1407 1512 1610 1448 1402 1259 1306 1240 1226 1193 1132 1089 1057 1032 1039 1065 873 777 847 860 834 821 824 916 718 610 516 60 0 0 0 0 0
2 0 0 0 0 0 0 0 0 0 0 0 0 0 0 0 0 0 0 0 0 0 0 0 0 0 0 0 251 525 388 475 550 798 722 672 779 1135 1206 1113 949 914 865 725 611 527 417 360 243 326 294 335 534 871 840 783 744 853 951 788 906 932 940 966 972 969 933 881 788 704 628 564 548 623 729 728 659 606 537 419 122 0 0 0 0 0 0
5 4 2 0 0 0 1 1 0 0 0 0 0 0 0 0 0 0 0 0 0 0 0 0 0 0 0 5 77 249 338 306 362 586 592 555 650 729 773 840 799 849 769 667 588 300 42 224 134 25 23 20 68 387 497 536 582 475 286 519 605 616 641 756 829 839 844 745 672 616 538 482 487 516 475 426 459 502 504 322 78 63 38 26 16 6 0
5 13 15 28 11 2 0 0 0 0 0 0 0 0 0 0 0 0 0 0 0 0 0 0 0 0 0 14 86 194 208 179 146 435 497 426 492 147 543 558 632 639 592 602 485 199 0 23 43 51 270 238 200 200 309 633 637 298 83 389 503 528 495 461 433 352 435 476 488 443 449 392 415 442 428 383 222 0 0 277 207 171 92 35 98 128 0
8 12 22 22 24 19 2 0 0 0 0 0 0 0 0 0 0 0 0 0 0 0 0 0 1 37 167 93 84 88 41 39 102 420 519 457 519 376 338 325 385 443 485 449 220 355 0 39 135 178 162 114 123 223 226 247 208 78 1 0 321 413 393 368 347 24 0 0 0 0 90 88 0 0 0 0 0 0 0 0 0 67 121 104 55 8 5
6 6 16 15 5 13 22 9 7 2 2 0 0 0 0 0 0 0 1 0 0 0 0 15 75 214 170 176 126 79 45 50 85 283 4 330 341 215 268 251 277 332 336 25 258 12 30 0 0 12 39 61 64 113 159 147 83 36 0 0 0 0 12 206 146 0 0 0 0 0 0 0 0 0 6 212 258 37 0 0 0 0 0 0 18 1 0
20 12 3 3 3 2 3 2 20 67 5 2 0 1 4 2 0 0 0 0 2 5 14 113 293 226 212 154 105 64 48 48 115 9 0 134 75 27 169 248 289 318 222 37 28 0 0 0 0 1 8 13 3 1 3 8 0 0 0 0 0 0 0 0 0 0 0 0 0 0 0 0 0 1 9 96 137 117 91 68 9 0 0 0 0 0 2
4 11 5 3 4 3 2 4 2 7 96 86 14 6 5 2 5 3 4 2 18 229 371 301 239 177 123 120 94 64 61 23 33 0 0 0 3 24 56 108 203 186 172 0 5 0 0 1 2 1 0 1 0 1 1 0 2 0 0 0 0 0 0 0 0 0 0 0 0 0 0 0 0 0 0 0 0 0 1 2 2 1 2 6 6 5 4
0 1 1 2 0 5 9 3 0 9 15 73 58 66 88 100 69 82 129 183 380 320 220 217 174 128 98 29 56 80 48 7 17 3 0 0 7 20 61 62 76 22 6 5 0 1 2 2 2 2 2 1 0 0 0 0 0 0 0 0 0 0 0 0 0 0 0 0 0 0 0 0 0 0 0 0 1 1 1 2 1 2 3 4 3 7 9
1 4 2 6 5 5 5 8 3 5 11 7 19 8 1 32 216 351 359 287 279 207 197 181 155 124 80 48 65 26 13 16 16 2 0 6 8 19 18 6 1 1 2 0 0 0 1 1 1 3 1 0 0 0 0 0 0 0 0 0 0 0 0 0 0 0 1 1 2 2 1 0 0 0 0 0 0 0 1 1 4 3 1 1 1 1 2
3 4 8 4 2 8 5 7 4 4 6 10 5 4 41 127 43 26 110 0 90 160 87 117 9 34 0 0 0 0 0 0 0 0 4 16 26 20 1 0 0 0 0 2 4 0 1 1 0 0 0 0 0 0 0 0 0 0 0 0 0 0 0 0 0 0 0 0 1 0 0 0 0 0 0 0 0 0 0 0 0 0 1 1 1 2 3
6 7 9 12 10 7 14 8 2 4 3 2 2 2 7 0 0 0 8 5 30 9 50 99 31 50 8 0 0 5 3 2 0 1 2 0 26 21 5 0 0 0 0 0 0 0 0 0 0 0 0 0 0 0 0 0 0 0 0 0 0 0 0 0 0 0 0 0 0 0 0 0 0 0 0 0 0 0 0 0 0 0 0 0 2 3 6
8 10 19 23 21 15 7 10 14 13 11 6 3 1 2 1 2 2 4 3 10 45 4 0 68 80 50 7 5 4 6 8 17 12 9 6 3 0 0 0 0 0 0 0 0 0 0 0 0 0 0 0 0 0 0 0 0 0 0 0 0 0 0 0 0 0 0 0 0 0 0 0 0 0 0 0 0 0 0 0 0 0 0 0 0 0 0
21 17 14 22 24 25 20 16 9 2 10 5 3 1 0 1 6 14 14 10 12 36 22 0 13 0 0 2 4 7 2 1 1 1 1 0 0 0 0 0 0 0 1 0 0 0 0 0 0 0 0 0 0 0 0 0 0 0 0 0 0 0 0 0 0 0 0 0 0 0 0 0 0 0 0 0 0 0 0 0 0 0 0 0 0 0 0
61 40 16 22 20 21 20 23 31 25 13 4 9 18 6 7 12 19 21 32 46 8 3 4 3 4 0 0 0 0 0 0 0 0 0 0 0 0 0 0 0 0 0 0 0 0 0 0 0 0 0 0 0 0 0 0 0 0 0 0 0 0 0 0 0 0 0 0 0 0 0 0 0 0 0 0 0 0 0 0 0 0 0 0 0 0 0
48 53 61 15 29 33 32 28 31 36 33 24 26 24 24 19 4 32 24 5 6 8 20 17 12 2 6 8 7 8 4 1 0 0 0 0 6 0 0 0 0 0 0 0 0 0 0 0 0 0 0 0 0 0 0 0 0 0 0 0 0 0 0 0 0 0 0 0 0 0 0 0 0 0 0 0 0 0 0 0 0 0 0 0 0 0 0
24 34 44 57 61 64 53 48 42 47 36 31 37 47 50 35 23 14 8 7 11 12 11 9 6 3 1 0 0 0 0 0 0 0 0 0 0 2 0 0 0 0 0 0 0 0 0 0 0 0 0 0 0 0 0 0 0 0 0 0 0 0 0 0 0 0 0 0 0 0 0 0 0 0 0 0 0 0 0 0 0 0 0 0 0 0 0
10 4 24 41 51 53 45 25 13 14 26 53 64 73 62 43 35 26 20 16 13 10 10 11 21 24 16 9 15 18 15 0 0 0 1 0 0 0 0 0 0 0 0 0 0 0 0 0 0 0 0 0 0 0 0 0 0 0 0 0 0 0 0 0 0 0 0 0 0 0 0 0 0 0 0 0 0 0 0 0 0 0 0 0 0 0 0
46 62 8 3 27 37 39 34 31 31 22 28 20 54 55 50 27 27 24 16 13 15 18 16 10 6 12 28 8 0 4 6 0 3 7 3 0 0 0 0 0 0 0 0 0 0 0 0 0 0 0 0 0 0 0 0 0 0 0 0 0 0 0 0 0 0 0 0 0 0 0 0 0 0 0 0 0 0 0 0 0 0 0 0 0 0 0
31 23 28 49 47 33 27 26 26 22 21 27 15 22 26 37 42 36 32 22 20 18 7 11 15 16 7 1 0 0 0 1 0 0 0 0 0 0 0 0 0 0 0 0 0 0 0 0 0 0 0 0 0 0 0 0 0 0 0 0 0 0 0 0 0 0 0 0 0 0 0 0 0 0 0 0 0 0 0 0 0 0 0 0 0 0 0
21 34 32 35 28 57 56 55 56 58 13 12 14 14 11 13 33 53 39 21 6 8 1 0 1 6 10 6 1 1 0 0 2 1 0 0 0 2 0 0 0 0 0 0 0 0 0 0 0 0 0 0 0 0 0 0 0 0 0 0 0 0 0 0 0 0 0 0 0 0 0 0 0 0 0 0 0 0 0 0 0 0 0 0 0 0 0
1 16 8 3 0 11 2 15 86 64 81 57 5 8 9 5 4 5 14 14 19 0 0 0 0 0 0 1 6 1 2 2 0 0 3 1 0 0 0 0 0 0 0 0 0 0 0 0 0 0 0 0 0 0 0 0 0 0 0 0 0 0 0 0 0 0 0 0 0 0 0 0 0 0 0 0 0 0 0 0 0 0 0 0 0 0 0
Wind_Speed
nan nan nan nan nan nan nan nan nan nan nan nan nan nan nan nan nan nan nan nan nan nan nan nan nan nan nan 39 38 29 21 23 22 16 18 21 24 20 16 9 6 6 8 10 12 11 10 9 6 4 5 7 8 8 8 8 6 7 9 8 8 7 6 5 5 4 4 4 5 7 9 10 11 12 11 11 11 11 12 13 13 14 15 15 14 12 11
nan nan nan nan nan nan nan nan nan nan nan nan nan nan nan nan nan nan 15 nan 21 nan nan nan nan nan nan nan nan 30 28 27 27 26 26 27 25 20 16 12 8 6 6 9 12 12 11 8 5 3 5 7 9 8 7 7 6 6 8 10 11 11 11 9 7 6 7 6 7 8 10 11 12 13 13 13 13 12 13 15 14 13 14 13 13 12 11
nan nan nan nan nan nan nan nan nan nan nan nan nan nan nan nan nan nan 16 25 nan nan nan nan nan nan nan nan nan 33 30 32 29 28 31 28 26 23 20 15 13 12 10 10 11 11 10 8 6 8 9 10 10 7 6 6 7 7 8 10 12 13 13 12 12 12 11 10 11 12 12 13 14 15 15 15 13 13 14 15 15 14 13 13 12 11 11
64 nan nan nan nan nan nan nan nan nan nan nan nan nan nan nan nan nan 23 nan nan nan nan nan nan nan nan nan nan nan nan 37 38 37 35 31 25 24 25 22 18 15 13 13 12 11 11 12 12 13 15 13 11 7 5 4 5 6 7 8 11 12 12 13 15 16 15 15 15 15 16 16 16 16 15 15 13 12 13 15 14 14 14 13 12 11 10
nan nan nan nan nan nan nan nan nan nan nan nan nan nan nan nan nan nan nan nan nan nan nan nan nan nan nan nan nan nan nan nan 39 40 38 34 33 33 31 27 21 18 18 19 19 16 15 15 15 14 15 14 10 7 5 4 5 4 6 6 8 10 11 13 15 17 18 18 17 16 16 17 16 16 15 14 12 12 12 13 14 15 15 13 11 11 11
nan nan nan nan nan nan nan nan nan nan nan nan nan nan nan nan nan nan nan 31 32 nan nan nan nan nan nan nan nan nan nan nan nan 41 nan nan 35 34 32 26 20 18 19 20 21 21 20 21 21 20 17 15 13 10 7 7 5 4 6 6 7 10 12 14 15 17 19 19 18 16 15 15 15 14 14 12 10 11 11 12 12 13 13 12 9 8 8
nan nan nan nan nan nan nan nan nan nan nan nan nan 63 57 nan nan 35 nan nan nan nan nan nan nan nan nan nan 49 51 49 45 42 42 41 42 42 37 33 33 32 28 25 23 24 25 24 25 23 21 20 18 17 14 12 9 6 6 7 7 8 11 13 15 17 18 19 21 20 17 15 14 13 11 11 10 9 10 11 11 11 10 11 11 10 9 8
nan nan nan nan nan nan nan nan nan nan nan nan nan 60 67 67 60 54 nan nan nan 43 nan nan nan nan nan 58 59 56 56 52 43 39 37 38 41 38 31 32 33 31 28 25 23 20 21 25 25 22 18 17 16 12 11 11 11 9 10 10 10 13 14 16 18 21 22 21 20 18 15 14 12 10 9 9 9 10 9 9 8 7 6 6 7 7 6
nan nan nan nan nan nan nan nan nan nan nan nan 50 50 57 69 66 59 48 nan nan nan nan nan nan 55 60 61 57 55 52 47 41 39 38 37 37 35 33 32 30 28 27 26 22 20 21 22 23 23 23 20 16 13 11 10 11 12 12 12 12 15 16 17 19 22 23 23 21 18 15 13 11 9 9 8 9 12 10 8 7 6 5 5 4 4 4
nan nan nan nan nan nan nan nan nan nan nan nan 49 54 64 73 72 64 59 nan nan 50 nan nan 51 59 63 57 51 50 49 45 43 41 39 37 35 36 35 30 29 27 26 25 24 24 24 25 24 24 23 22 20 20 15 10 11 11 12 13 16 19 19 19 19 21 23 24 23 18 14 12 11 10 10 11 11 13 11 8 6 5 5 4 3 2 2
nan nan nan nan nan nan nan nan nan nan nan nan nan 54 60 70 72 71 65 64 60 56 57 57 56 59 56 50 47 46 45 44 43 41 39 38 36 35 34 30 28 27 26 24 24 26 26 26 24 24 23 24 24 20 19 19 15 12 11 14 19 20 22 22 21 21 22 23 22 18 12 11 12 12 12 12 12 12 10 9 7 7 6 4 2 2 0
nan nan nan nan nan nan nan nan nan nan nan nan nan 53 59 72 76 75 73 70 71 71 68 68 68 61 55 54 51 48 47 45 45 44 42 40 38 37 35 33 31 29 29 30 29 28 27 24 24 25 25 23 22 21 20 20 21 17 13 16 19 22 25 25 23 23 24 22 21 18 13 11 11 10 12 12 12 11 11 11 10 8 7 5 3 2 3
nan nan nan nan nan nan nan nan nan nan nan nan 65 51 57 69 73 78 76 77 74 72 72 69 67 64 58 56 56 55 52 50 47 46 45 43 40 39 39 37 33 30 30 30 29 27 25 26 27 26 25 23 21 18 19 21 20 20 20 20 21 22 25 27 26 25 26 24 22 19 17 16 15 13 13 13 14 13 12 12 11 10 7 7 5 4 5
nan nan nan nan nan nan nan nan nan nan nan nan 65 51 51 63 77 78 79 80 79 75 73 69 66 62 59 59 61 60 56 51 47 45 45 43 41 39 37 36 33 30 29 30 30 28 28 29 28 26 25 23 20 18 17 18 17 19 21 20 21 22 24 25 26 26 27 27 25 23 21 21 20 18 18 17 16 15 15 14 13 11 11 9 8 7 7
nan nan nan nan nan nan nan nan nan nan nan 68 65 59 59 71 79 81 80 82 83 80 76 73 67 63 60 60 60 57 53 49 48 48 47 46 44 42 40 39 37 33 29 29 28 28 28 27 26 26 25 24 20 17 19 19 19 22 23 20 20 20 22 23 25 26 28 30 28 26 24 24 23 23 23 21 20 19 18 16 15 13 12 12 10 8 9
nan nan nan nan nan nan nan nan nan nan nan nan nan 66 63 66 76 81 80 82 82 81 76 72 70 69 63 57 55 53 50 49 48 48 48 48 47 44 42 40 38 36 34 29 30 29 28 26 26 25 26 25 24 23 23 20 21 23 24 22 20 20 21 23 24 25 28 28 28 28 28 27 26 25 24 24 24 23 21 20 18 15 15 15 13 12 11
nan nan nan nan nan nan nan nan nan nan nan nan nan 69 68 66 69 76 80 81 79 77 nan nan 71 72 69 61 55 51 48 48 50 51 51 51 49 47 43 41 39 36 35 31 31 29 29 30 31 26 26 27 27 27 24 24 25 26 25 25 22 21 22 23 24 25 27 28 28 28 28 29 28 27 26 26 26 26 25 23 21 20 19 20 18 17 17
nan nan nan nan nan nan nan nan nan nan nan nan nan 68 67 69 69 70 74 nan nan nan nan nan nan nan 63 60 59 55 50 50 50 51 54 55 53 50 46 42 41 38 38 35 33 32 32 31 31 29 29 28 27 25 25 26 26 27 28 28 26 24 24 24 26 27 27 27 28 28 28 29 29 29 29 28 27 28 28 26 25 24 24 25 24 23 23
nan nan nan nan nan nan nan nan nan nan nan nan nan nan 67 68 72 70 nan nan nan nan nan nan nan nan nan 59 56 55 52 52 51 51 52 54 53 51 48 45 43 42 41 39 36 36 35 33 32 31 31 30 29 29 29 28 28 29 30 30 30 29 28 28 28 29 29 28 27 28 28 29 30 30 30 30 30 30 30 29 28 27 28 29 29 30 28
nan nan nan nan nan nan nan nan nan nan nan nan nan nan nan nan 69 74 nan nan nan nan nan nan nan nan nan nan 59 55 54 52 50 49 50 52 53 52 49 45 46 45 44 41 40 39 36 34 35 34 33 32 30 30 30 31 31 32 32 32 31 32 32 32 32 31 32 30 30 29 29 30 31 32 32 31 32 32 31 31 31 30 31 32 33 33 33
nan nan nan nan nan nan nan nan nan nan nan nan nan nan nan nan 78 77 76 nan nan nan nan nan nan nan nan nan nan 57 54 53 51 49 49 49 50 50 49 47 46 47 45 43 43 40 39 38 37 37 34 33 33 34 33 31 32 30 31 33 33 34 34 35 34 33 34 33 32 31 31 32 33 34 31 31 34 36 38 33 32 34 34 37 37 38 41
nan nan nan nan nan nan nan nan nan nan nan nan nan nan nan nan nan nan nan nan nan nan nan nan nan nan nan nan nan nan 55 52 51 51 50 49 48 49 48 47 46 47 46 47 45 43 41 41 39 37 37 36 36 37 38 38 38 35 33 34 35 35 36 36 35 35 35 35 34 34 34 35 39 41 49 52 42 39 38 42 51 50 48 42 43 46 47
nan nan nan nan nan nan nan nan nan nan nan nan nan nan nan nan nan nan nan nan nan nan nan nan nan nan nan nan nan nan nan nan 51 50 49 48 48 48 49 51 49 47 48 47 46 44 44 44 44 43 41 40 43 40 41 42 41 40 38 37 39 39 40 40 39 39 38 38 39 38 37 38 42 43 44 47 54 52 48 49 53 55 56 56 56 52 51
nan nan nan nan nan nan nan nan nan nan nan nan nan nan nan nan nan nan nan nan nan nan nan nan nan nan nan nan nan nan nan nan 53 51 50 48 47 48 50 49 51 50 48 48 49 49 49 50 50 50 51 50 46 43 44 44 44 44 43 42 43 42 42 42 42 43 42 42 41 42 41 42 44 44 47 48 47 50 51 51 55 57 59 59 58 57 56
nan nan nan nan nan nan nan nan nan nan nan nan nan nan nan nan nan nan nan nan nan nan nan nan nan nan nan nan nan nan nan nan 56 53 50 46 44 45 47 49 51 51 51 50 50 50 50 51 51 52 53 51 50 46 47 47 47 49 47 46 46 45 44 44 44 46 46 46 44 44 45 47 46 46 46 48 50 47 47 49 53 56 57 58 58 58 59
nan nan nan nan nan nan nan nan nan nan nan nan nan nan nan nan nan nan nan nan nan nan nan nan nan nan nan nan nan nan nan nan 58 54 50 47 45 45 46 49 52 53 52 51 51 50 50 52 53 54 55 53 52 50 51 52 51 49 48 50 51 49 48 48 47 47 47 47 47 47 48 49 49 48 47 49 50 49 49 48 50 51 51 52 54 57 58
nan nan nan nan nan nan nan nan nan nan nan nan nan nan nan nan nan nan nan nan nan nan nan nan nan nan nan nan nan nan nan 54 56 55 52 50 46 43 46 51 53 52 51 51 49 49 50 51 52 54 54 52 51 51 53 53 54 52 49 50 52 56 60 53 48 49 49 49 49 49 50 50 50 50 50 50 50 50 50 51 51 52 51 51 52 56 57
nan nan nan nan nan nan nan nan nan nan nan nan nan nan nan nan nan nan nan nan nan nan nan nan nan nan nan nan nan nan 52 53 53 52 51 49 48 44 47 50 51 51 51 51 51 50 50 51 52 52 53 51 50 51 54 55 55 55 55 53 53 52 52 52 51 51 51 52 51 51 51 51 52 52 51 52 54 54 55 55 54 54 53 54 53 nan nan
nan nan nan nan nan nan nan nan nan nan nan nan nan nan nan nan nan nan nan nan nan nan nan nan nan nan nan nan nan 49 51 49 49 50 48 49 49 48 49 50 50 51 52 52 53 53 53 53 53 52 50 49 51 52 53 55 56 57 56 55 54 53 52 51 51 52 53 53 53 54 54 54 54 54 55 55 55 55 56 57 57 56 nan nan nan nan nan
nan nan nan nan nan nan nan nan nan nan nan nan nan nan nan nan nan nan nan nan nan nan nan nan nan nan nan nan nan 53 49 46 46 45 45 47 48 49 50 50 48 49 53 54 52 49 50 52 52 53 52 52 56 55 55 56 57 58 58 58 57 55 50 48 50 53 53 54 54 56 56 55 55 55 56 55 56 56 57 58 nan nan nan nan nan nan nan
nan nan nan nan nan nan nan nan nan nan nan nan nan nan nan nan nan nan nan nan nan nan nan nan nan nan nan nan nan 59 57 53 50 50 51 52 53 51 51 52 51 54 55 54 53 51 51 53 54 55 55 55 57 57 56 55 55 57 59 59 59 62 64 63 60 58 57 58 58 57 56 57 57 58 58 59 59 59 59 59 60 nan nan nan nan nan nan
nan nan nan nan nan nan nan nan nan nan nan nan nan nan nan nan nan nan nan nan nan nan nan nan nan nan nan nan 64 64 62 61 59 58 58 59 59 58 57 58 59 59 58 57 57 55 55 56 57 56 56 56 56 56 57 58 60 61 61 60 60 59 61 64 61 62 61 61 61 61 61 61 61 60 60 60 61 62 62 62 61 nan nan nan nan nan nan
nan nan nan nan nan nan nan nan nan nan nan nan nan nan nan nan nan nan nan nan nan nan nan nan nan nan nan nan nan 67 65 63 63 61 59 61 63 63 60 60 60 64 63 62 59 59 nan 59 59 nan nan nan nan 57 57 60 61 61 61 61 61 62 62 63 64 64 64 65 64 64 63 63 63 64 64 64 64 63 64 63 nan nan nan nan nan nan nan
nan nan nan nan nan nan nan nan nan nan nan nan nan nan nan nan nan nan nan nan nan nan nan nan nan nan nan nan nan 68 67 64 66 64 58 60 64 63 64 62 62 65 65 63 64 63 nan nan nan nan 60 61 60 58 57 59 61 61 nan 62 63 63 64 63 64 65 65 66 65 66 65 65 66 65 65 65 66 nan nan 65 65 64 nan nan nan 60 nan
nan nan nan nan nan nan nan nan nan nan nan nan nan nan nan nan nan nan nan nan nan nan nan nan nan nan 70 nan nan nan nan nan 65 69 68 61 63 65 65 64 63 65 68 68 65 63 nan nan 60 61 62 62 62 62 65 65 64 nan nan nan 64 64 64 65 66 nan nan nan nan nan nan nan nan nan nan nan nan nan nan nan nan nan 67 66 nan nan nan
nan nan nan nan nan nan nan nan nan nan nan nan nan nan nan nan nan nan nan nan nan nan nan nan nan 69 70 69 70 nan nan nan nan 66 nan 72 67 65 68 68 67 67 68 nan 65 nan nan nan nan nan nan nan nan 63 63 63 nan nan nan nan nan nan nan 68 68 nan nan nan nan nan nan nan nan nan nan 71 70 nan nan nan nan nan nan nan nan nan nan
nan nan nan nan nan nan nan nan nan nan nan nan nan nan nan nan nan nan nan nan nan nan nan 63 67 69 69 67 66 nan nan nan 64 nan nan 65 nan nan 66 68 70 68 68 nan nan nan nan nan nan nan nan nan nan nan nan nan nan nan nan nan nan nan nan nan nan nan nan nan nan nan nan nan nan nan nan nan 73 73 nan nan nan nan nan nan nan nan nan
nan nan nan nan nan nan nan nan nan nan nan nan nan nan nan nan nan nan nan nan nan 53 59 65 68 68 69 66 nan nan nan nan nan nan nan nan nan nan nan 59 59 59 62 nan nan nan nan nan nan nan nan nan nan nan nan nan nan nan nan nan nan nan nan nan nan nan nan nan nan nan nan nan nan nan nan nan nan nan nan nan nan nan nan nan nan nan nan
nan nan nan nan nan nan nan nan nan nan nan nan nan nan nan nan nan nan 42 47 53 56 60 63 64 64 nan nan nan nan nan nan nan nan nan nan nan nan nan nan nan nan nan nan nan nan nan nan nan nan nan nan nan nan nan nan nan nan nan nan nan nan nan nan nan nan nan nan nan nan nan nan nan nan nan nan nan nan nan nan nan nan nan nan nan nan nan
nan nan nan nan nan nan nan nan nan nan nan nan nan nan nan nan 18 26 34 41 46 53 57 58 60 61 nan nan nan nan nan nan nan nan nan nan nan nan nan nan nan nan nan nan nan nan nan nan nan nan nan nan nan nan nan nan nan nan nan nan nan nan nan nan nan nan nan nan nan nan nan nan nan nan nan nan nan nan nan nan nan nan nan nan nan nan nan
nan nan nan nan nan nan nan nan nan nan nan nan nan nan nan 32 nan nan 37 nan nan 54 nan 60 nan nan nan nan nan nan nan nan nan nan nan nan nan nan nan nan nan nan nan nan nan nan nan nan nan nan nan nan nan nan nan nan nan nan nan nan nan nan nan nan nan nan nan nan nan nan nan nan nan nan nan nan nan nan nan nan nan nan nan nan nan nan nan
nan nan nan nan nan nan nan nan nan nan nan nan nan nan nan nan nan nan nan nan nan nan nan nan nan nan nan nan nan nan nan nan nan nan nan nan nan nan nan nan nan nan nan nan nan nan nan nan nan nan nan nan nan nan nan nan nan nan nan nan nan nan nan nan nan nan nan nan nan nan nan nan nan nan nan nan nan nan nan nan nan nan nan nan nan nan nan
nan nan nan nan nan nan nan nan nan nan nan nan nan nan nan nan nan nan nan nan nan nan nan nan nan nan nan nan nan nan nan nan nan nan nan nan nan nan nan nan nan nan nan nan nan nan nan nan nan nan nan nan nan nan nan nan nan nan nan nan nan nan nan nan nan nan nan nan nan nan nan nan nan nan nan nan nan nan nan nan nan nan nan nan nan nan nan
nan nan nan nan nan nan nan nan nan nan nan nan nan nan nan nan nan nan nan nan nan nan nan nan nan nan nan nan nan nan nan nan nan nan nan nan nan nan nan nan nan nan nan nan nan nan nan nan nan nan nan nan nan nan nan nan nan nan nan nan nan nan nan nan nan nan nan nan nan nan nan nan nan nan nan nan nan nan nan nan nan nan nan nan nan nan nan
nan nan nan nan nan nan nan nan nan nan nan nan nan nan nan nan nan nan nan nan nan nan nan nan nan nan nan nan nan nan nan nan nan nan nan nan nan nan nan nan nan nan nan nan nan nan nan nan nan nan nan nan nan nan nan nan nan nan nan nan nan nan nan nan nan nan nan nan nan nan nan nan nan nan nan nan nan nan nan nan nan nan nan nan nan nan nan
nan nan nan nan nan nan nan nan nan nan nan nan nan nan nan nan nan nan nan nan nan nan nan nan nan nan nan nan nan nan nan nan nan nan nan nan nan nan nan nan nan nan nan nan nan nan nan nan nan nan nan nan nan nan nan nan nan nan nan nan nan nan nan nan nan nan nan nan nan nan nan nan nan nan nan nan nan nan nan nan nan nan nan nan nan nan nan
nan nan nan nan nan nan nan nan nan nan nan nan nan nan nan nan nan nan nan nan nan nan nan nan nan nan nan nan nan nan nan nan nan nan nan nan nan nan nan nan nan nan nan nan nan nan nan nan nan nan nan nan nan nan nan nan nan nan nan nan nan nan nan nan nan nan nan nan nan nan nan nan nan nan nan nan nan nan nan nan nan nan nan nan nan nan nan
nan nan nan nan nan nan nan nan nan nan nan nan nan nan nan nan nan nan nan nan nan nan nan nan nan nan nan nan nan nan nan nan nan nan nan nan nan nan nan nan nan nan nan nan nan nan nan nan nan nan nan nan nan nan nan nan nan nan nan nan nan nan nan nan nan nan nan nan nan nan nan nan nan nan nan nan nan nan nan nan nan nan nan nan nan nan nan
nan nan nan nan nan nan nan nan nan nan nan nan nan nan nan nan nan nan nan nan nan nan nan nan nan nan nan nan nan nan nan nan nan nan nan nan nan nan nan nan nan nan nan nan nan nan nan nan nan nan nan nan nan nan nan nan nan nan nan nan nan nan nan nan nan nan nan nan nan nan nan nan nan nan nan nan nan nan nan nan nan nan nan nan nan nan nan
nan nan nan nan nan nan nan nan nan nan nan nan nan nan nan nan nan nan nan nan nan nan nan nan nan nan nan nan nan nan nan nan nan nan nan nan nan nan nan nan nan nan nan nan nan nan nan nan nan nan nan nan nan nan nan nan nan nan nan nan nan nan nan nan nan nan nan nan nan nan nan nan nan nan nan nan nan nan nan nan nan nan nan nan nan nan nan
nan nan nan nan nan nan nan nan nan nan nan nan nan nan nan nan nan nan nan nan nan nan nan nan nan nan nan nan nan nan nan nan nan nan nan nan nan nan nan nan nan nan nan nan nan nan nan nan nan nan nan nan nan nan nan nan nan nan nan nan nan nan nan nan nan nan nan nan nan nan nan nan nan nan nan nan nan nan nan nan nan nan nan nan nan nan nan
nan nan nan nan nan nan nan nan nan nan nan nan nan nan nan nan nan nan nan nan nan nan nan nan nan nan nan nan nan nan nan nan nan nan nan nan nan nan nan nan nan nan nan nan nan nan nan nan nan nan nan nan nan nan nan nan nan nan nan nan nan nan nan nan nan nan nan nan nan nan nan nan nan nan nan nan nan nan nan nan nan nan nan nan nan nan nan
Wind_Direction
nan nan nan nan nan nan nan nan nan nan nan nan nan nan nan nan nan nan nan nan nan nan nan nan nan nan nan 256 262 258 244 234 221 227 263 258 257 266 296 305 302 288 268 252 257 266 268 257 255 277 274 283 284 281 287 292 294 304 302 315 336 344 347 359 7 348 323 327 330 328 328 328 332 332 327 324 325 326 328 335 336 343 343 345 350 355 2
nan nan nan nan nan nan nan nan nan nan nan nan nan nan nan nan nan nan 241 nan 225 nan nan nan nan nan nan nan nan 244 222 217 220 226 240 248 257 269 283 294 298 294 281 258 255 260 256 249 229 222 242 260 278 286 285 294 309 310 309 333 346 354 358 354 342 326 312 303 303 305 310 318 322 320 315 315 319 326 330 334 335 338 340 342 349 352 358
nan nan nan nan nan nan nan nan nan nan nan nan nan nan nan nan nan nan 232 219 nan nan nan nan nan nan nan nan nan 229 213 207 216 226 237 244 257 262 266 274 277 266 263 263 267 267 256 240 215 209 228 246 259 273 274 288 312 326 331 343 355 0 0 343 334 331 321 315 305 306 309 307 306 311 311 307 312 320 326 327 330 329 334 343 347 348 357
181 nan nan nan nan nan nan nan nan nan nan nan nan nan nan nan nan nan 215 nan nan nan nan nan nan nan nan nan nan nan nan 220 225 222 222 224 231 246 254 253 255 254 245 246 266 268 255 237 224 215 220 235 247 259 259 267 299 325 343 346 353 354 350 338 336 335 328 321 316 315 310 310 307 306 300 300 307 316 322 322 318 319 332 343 344 344 352
nan nan nan nan nan nan nan nan nan nan nan nan nan nan nan nan nan nan nan nan nan nan nan nan nan nan nan nan nan nan nan nan 226 223 219 219 222 225 233 240 240 235 227 226 231 239 240 239 235 230 230 236 247 253 251 248 258 313 351 348 338 343 342 339 340 338 330 327 325 318 316 312 303 296 294 296 303 309 320 314 311 323 332 335 344 346 350
nan nan nan nan nan nan nan nan nan nan nan nan nan nan nan nan nan nan nan 206 208 nan nan nan nan nan nan nan nan nan nan nan nan 222 nan nan 223 229 232 235 241 237 229 225 225 230 234 232 233 232 232 238 242 244 249 253 271 297 335 351 323 328 333 334 335 337 335 332 329 323 315 307 297 292 288 295 302 301 299 302 315 323 324 332 340 350 355
nan nan nan nan nan nan nan nan nan nan nan nan nan 204 187 nan nan 214 nan nan nan nan nan nan nan nan nan nan 218 218 219 225 232 238 240 237 231 233 240 237 236 240 239 233 226 219 220 218 221 230 234 238 237 236 241 248 267 285 299 322 309 302 322 325 326 330 333 334 331 322 314 308 299 293 288 283 291 290 292 306 314 316 319 327 338 352 5
nan nan nan nan nan nan nan nan nan nan nan nan nan 200 193 185 188 189 nan nan nan 219 nan nan nan nan nan 219 218 219 221 225 230 235 236 240 242 241 238 235 231 232 234 236 231 228 226 225 223 225 228 237 243 244 250 257 254 268 279 296 305 287 305 316 320 323 328 332 331 321 310 305 305 300 291 290 293 284 280 286 290 291 300 319 334 342 350
nan nan nan nan nan nan nan nan nan nan nan nan 193 203 196 189 187 192 191 nan nan nan nan nan nan 225 224 223 219 220 223 225 227 229 233 240 244 243 238 234 231 231 230 229 225 224 226 223 221 223 223 226 233 243 261 262 263 264 269 278 291 286 292 303 310 314 319 326 329 321 305 303 307 299 290 286 276 271 277 279 286 298 311 311 296 309 329
nan nan nan nan nan nan nan nan nan nan nan nan 187 203 198 186 187 193 196 nan nan 215 nan nan 223 226 227 225 224 223 225 224 225 226 227 232 239 240 238 232 226 223 223 222 216 215 217 217 218 218 225 232 237 235 234 255 280 273 271 276 271 273 281 289 295 301 308 316 322 317 301 298 296 283 279 272 275 274 283 284 287 289 276 270 273 275 322
nan nan nan nan nan nan nan nan nan nan nan nan nan 197 193 184 185 193 201 201 203 212 216 212 218 225 226 227 227 224 223 221 221 226 227 225 228 236 237 233 230 222 222 225 222 224 221 220 214 216 223 230 233 235 242 244 254 274 281 275 271 269 268 274 282 288 295 306 315 316 307 297 290 285 280 276 268 268 272 271 275 268 267 274 274 256 278
nan nan nan nan nan nan nan nan nan nan nan nan nan 191 187 182 184 194 200 206 207 206 213 217 216 219 225 224 224 223 222 220 219 223 225 224 221 225 229 230 227 225 226 224 221 223 221 216 217 219 219 222 229 235 231 237 244 251 257 263 263 261 264 268 271 277 284 294 303 307 302 287 282 280 269 267 267 266 266 267 270 270 273 275 295 282 266
nan nan nan nan nan nan nan nan nan nan nan nan 193 191 182 178 187 196 200 206 206 207 209 210 216 216 220 220 220 222 221 221 221 221 221 220 219 220 220 228 223 220 223 225 222 220 216 214 218 221 220 220 218 224 228 227 229 236 242 247 250 253 256 262 267 272 275 284 292 291 287 282 276 269 266 268 267 270 271 269 271 275 288 283 280 282 285
nan nan nan nan nan nan nan nan nan nan nan nan 191 187 178 179 191 198 200 204 206 206 210 211 214 219 221 221 220 221 219 220 220 220 221 221 218 219 222 227 226 219 222 223 220 217 220 217 215 215 216 215 212 212 220 220 218 222 226 245 250 247 249 254 260 264 270 274 280 278 275 274 273 268 263 264 266 272 271 271 278 283 282 284 286 281 279
nan nan nan nan nan nan nan nan nan nan nan 191 190 185 183 186 192 197 200 202 206 208 209 211 213 217 221 222 223 223 221 219 218 216 216 218 219 221 219 220 220 216 222 224 217 220 223 222 214 212 210 209 203 204 224 218 215 218 214 228 241 246 247 249 252 256 261 269 270 266 266 269 269 269 268 269 267 268 270 271 276 279 283 284 286 286 277
nan nan nan nan nan nan nan nan nan nan nan nan nan 192 188 187 192 197 200 201 205 208 211 212 212 214 216 219 222 222 219 216 215 215 216 218 217 219 219 219 217 214 212 220 224 223 220 220 217 216 211 207 211 223 221 216 218 221 218 217 235 238 243 245 248 250 254 259 262 261 263 261 260 262 265 268 268 269 269 270 269 269 268 273 274 278 279
nan nan nan nan nan nan nan nan nan nan nan nan nan 199 194 190 191 196 201 201 203 206 nan nan 212 215 215 216 218 220 217 213 211 211 215 216 216 215 215 221 219 216 214 218 226 222 225 221 216 215 218 217 216 217 216 216 219 221 221 221 233 237 241 243 247 248 250 252 255 256 257 258 255 254 256 260 264 264 268 269 267 265 264 266 270 270 271
nan nan nan nan nan nan nan nan nan nan nan nan nan 203 200 196 195 197 202 nan nan nan nan nan nan nan 216 213 212 214 217 218 215 213 213 213 214 214 214 221 223 221 217 218 225 227 225 222 221 220 218 221 220 216 217 218 221 224 226 226 235 239 240 244 247 251 252 252 254 257 257 255 255 254 255 256 259 261 266 267 268 267 265 266 267 268 269
nan nan nan nan nan nan nan nan nan nan nan nan nan nan 207 204 199 201 nan nan nan nan nan nan nan nan nan 215 216 217 219 219 218 216 215 214 214 215 216 224 226 227 227 224 228 232 231 225 224 224 222 221 221 221 220 218 223 227 231 232 236 241 242 242 244 248 254 254 253 255 257 255 256 255 256 255 257 259 262 265 267 269 269 269 269 270 271
nan nan nan nan nan nan nan nan nan nan nan nan nan nan nan nan 209 207 nan nan nan nan nan nan nan nan nan nan 225 226 224 221 219 218 214 215 215 216 217 224 229 231 232 232 234 234 232 229 226 224 225 223 221 223 225 223 225 230 233 236 238 241 245 246 246 246 250 259 258 256 256 258 256 255 255 257 260 261 263 265 266 268 270 271 272 273 274
nan nan nan nan nan nan nan nan nan nan nan nan nan nan nan nan 216 215 212 nan nan nan nan nan nan nan nan nan nan 227 226 225 220 219 215 215 216 215 214 219 229 232 234 234 237 234 233 231 229 225 223 225 224 227 227 228 226 230 234 239 240 242 243 247 247 247 250 253 257 258 257 256 255 252 254 261 262 254 249 253 263 269 271 270 268 266 266
nan nan nan nan nan nan nan nan nan nan nan nan nan nan nan nan nan nan nan nan nan nan nan nan nan nan nan nan nan nan 226 225 223 220 219 216 216 213 213 213 226 229 230 233 235 233 234 233 231 230 230 226 230 232 231 231 230 235 240 241 240 243 241 244 249 251 250 254 256 260 260 259 255 249 242 239 243 259 258 251 254 256 262 263 263 267 266
nan nan nan nan nan nan nan nan nan nan nan nan nan nan nan nan nan nan nan nan nan nan nan nan nan nan nan nan nan nan nan nan 223 223 221 219 217 217 215 214 219 227 228 229 232 233 233 233 231 233 239 240 237 236 239 239 238 238 236 242 247 246 245 245 247 249 248 251 251 251 255 259 257 257 253 246 242 242 252 258 259 259 259 261 260 264 270
nan nan nan nan nan nan nan nan nan nan nan nan nan nan nan nan nan nan nan nan nan nan nan nan nan nan nan nan nan nan nan nan 225 225 221 220 220 219 218 218 217 221 227 227 230 231 234 235 235 235 236 236 236 240 244 244 243 242 240 245 248 246 247 248 247 249 250 251 253 254 253 257 261 261 260 260 252 246 245 253 258 260 261 260 261 263 268
nan nan nan nan nan nan nan nan nan nan nan nan nan nan nan nan nan nan nan nan nan nan nan nan nan nan nan nan nan nan nan nan 228 228 226 223 221 222 222 222 222 222 224 228 229 233 234 236 237 238 238 237 236 237 242 244 245 244 243 246 247 247 246 246 248 250 252 251 251 252 255 255 258 262 263 263 263 260 252 253 258 260 261 263 265 266 266
nan nan nan nan nan nan nan nan nan nan nan nan nan nan nan nan nan nan nan nan nan nan nan nan nan nan nan nan nan nan nan nan 226 227 229 229 226 224 224 228 227 224 225 227 229 230 233 237 239 239 238 237 236 238 242 243 243 244 245 248 250 249 248 248 248 249 250 252 252 253 255 256 257 260 262 265 268 268 267 266 262 261 263 263 266 270 271
nan nan nan nan nan nan nan nan nan nan nan nan nan nan nan nan nan nan nan nan nan nan nan nan nan nan nan nan nan nan nan 223 224 225 227 226 223 223 226 231 231 230 228 229 229 231 233 236 239 241 240 238 238 240 243 242 243 243 244 248 250 250 250 249 250 250 251 251 251 252 254 257 259 259 260 263 266 268 268 267 266 265 263 260 258 263 265
nan nan nan nan nan nan nan nan nan nan nan nan nan nan nan nan nan nan nan nan nan nan nan nan nan nan nan nan nan nan 224 224 221 222 225 226 225 224 232 233 233 232 231 231 230 230 232 233 236 238 241 240 239 241 242 243 243 244 245 245 246 248 248 249 249 250 251 251 251 253 254 255 257 258 259 261 262 263 263 264 266 267 265 264 265 nan nan
nan nan nan nan nan nan nan nan nan nan nan nan nan nan nan nan nan nan nan nan nan nan nan nan nan nan nan nan nan 219 222 220 220 221 224 227 226 230 236 237 236 236 235 235 235 234 234 234 233 234 236 237 238 239 242 244 245 245 245 245 245 246 246 247 250 251 252 252 253 254 255 256 255 256 257 259 261 262 263 265 265 265 nan nan nan nan nan
nan nan nan nan nan nan nan nan nan nan nan nan nan nan nan nan nan nan nan nan nan nan nan nan nan nan nan nan nan 225 222 219 219 221 225 227 228 229 234 236 237 237 237 237 236 236 237 236 235 235 235 236 237 238 240 242 245 245 245 245 245 245 246 248 251 251 252 252 252 254 255 255 255 255 256 258 261 263 265 265 nan nan nan nan nan nan nan
nan nan nan nan nan nan nan nan nan nan nan nan nan nan nan nan nan nan nan nan nan nan nan nan nan nan nan nan nan 231 229 227 227 228 230 233 233 233 237 237 238 241 240 239 239 239 242 240 239 239 239 239 238 237 238 239 241 243 243 243 244 242 243 247 249 249 250 249 249 249 251 253 254 254 255 255 255 256 258 260 262 nan nan nan nan nan nan
nan nan nan nan nan nan nan nan nan nan nan nan nan nan nan nan nan nan nan nan nan nan nan nan nan nan nan nan 233 234 233 233 234 236 238 240 240 239 240 242 244 244 244 243 241 241 243 244 242 241 240 240 241 240 240 241 243 244 244 244 244 246 246 246 248 247 248 248 249 249 248 249 249 249 250 252 255 257 257 260 262 nan nan nan nan nan nan
nan nan nan nan nan nan nan nan nan nan nan nan nan nan nan nan nan nan nan nan nan nan nan nan nan nan nan nan nan 236 236 235 238 239 241 246 247 244 242 243 245 246 246 246 246 245 nan 244 244 nan nan nan nan 243 242 245 246 245 246 246 247 247 247 247 248 249 248 248 249 249 249 249 250 250 251 251 252 254 256 257 nan nan nan nan nan nan nan
nan nan nan nan nan nan nan nan nan nan nan nan nan nan nan nan nan nan nan nan nan nan nan nan nan nan nan nan nan 238 238 238 238 240 244 249 250 250 249 247 246 247 248 247 248 246 nan nan nan nan 243 242 242 243 244 246 248 249 nan 249 248 248 248 249 249 250 251 251 251 250 250 250 250 250 251 251 252 nan nan 255 256 258 nan nan nan 261 nan
nan nan nan nan nan nan nan nan nan nan nan nan nan nan nan nan nan nan nan nan nan nan nan nan nan nan 237 nan nan nan nan nan 241 241 239 242 250 253 252 251 248 247 247 247 247 248 nan nan 245 244 242 242 242 245 249 252 251 nan nan nan 251 250 250 250 250 nan nan nan nan nan nan nan nan nan nan nan nan nan nan nan nan nan 257 257 nan nan nan
nan nan nan nan nan nan nan nan nan nan nan nan nan nan nan nan nan nan nan nan nan nan nan nan nan 237 237 238 241 nan nan nan nan 242 nan 240 237 243 247 248 247 246 246 nan 244 nan nan nan nan nan nan nan nan 245 247 249 nan nan nan nan nan nan nan 250 250 nan nan nan nan nan nan nan nan nan nan 252 252 nan nan nan nan nan nan nan nan nan nan
nan nan nan nan nan nan nan nan nan nan nan nan nan nan nan nan nan nan nan nan nan nan nan 237 238 237 236 238 244 nan nan nan 240 nan nan 245 nan nan 241 241 241 241 243 nan nan nan nan nan nan nan nan nan nan nan nan nan nan nan nan nan nan nan nan nan nan nan nan nan nan nan nan nan nan nan nan nan 253 253 nan nan nan nan nan nan nan nan nan
nan nan nan nan nan nan nan nan nan nan nan nan nan nan nan nan nan nan nan nan nan 225 228 232 235 236 236 232 nan nan nan nan nan nan nan nan nan nan nan 233 234 234 237 nan nan nan nan nan nan nan nan nan nan nan nan nan nan nan nan nan nan nan nan nan nan nan nan nan nan nan nan nan nan nan nan nan nan nan nan nan nan nan nan nan nan nan nan
nan nan nan nan nan nan nan nan nan nan nan nan nan nan nan nan nan nan 220 220 222 222 224 228 232 232 nan nan nan nan nan nan nan nan nan nan nan nan nan nan nan nan nan nan nan nan nan nan nan nan nan nan nan nan nan nan nan nan nan nan nan nan nan nan nan nan nan nan nan nan nan nan nan nan nan nan nan nan nan nan nan nan nan nan nan nan nan
nan nan nan nan nan nan nan nan nan nan nan nan nan nan nan nan 227 232 228 224 220 223 223 223 225 225 nan nan nan nan nan nan nan nan nan nan nan nan nan nan nan nan nan nan nan nan nan nan nan nan nan nan nan nan nan nan nan nan nan nan nan nan nan nan nan nan nan nan nan nan nan nan nan nan nan nan nan nan nan nan nan nan nan nan nan nan nan
nan nan nan nan nan nan nan nan nan nan nan nan nan nan nan 217 nan nan 220 nan nan 220 nan 215 nan nan nan nan nan nan nan nan nan nan nan nan nan nan nan nan nan nan nan nan nan nan nan nan nan nan nan nan nan nan nan nan nan nan nan nan nan nan nan nan nan nan nan nan nan nan nan nan nan nan nan nan nan nan nan nan nan nan nan nan nan nan nan
nan nan nan nan nan nan nan nan nan nan nan nan nan nan nan nan nan nan nan nan nan nan nan nan nan nan nan nan nan nan nan nan nan nan nan nan nan nan nan nan nan nan nan nan nan nan nan nan nan nan nan nan nan nan nan nan nan nan nan nan nan nan nan nan nan nan nan nan nan nan nan nan nan nan nan nan nan nan nan nan nan nan nan nan nan nan nan
nan nan nan nan nan nan nan nan nan nan nan nan nan nan nan nan nan nan nan nan nan nan nan nan nan nan nan nan nan nan nan nan nan nan nan nan nan nan nan nan nan nan nan nan nan nan nan nan nan nan nan nan nan nan nan nan nan nan nan nan nan nan nan nan nan nan nan nan nan nan nan nan nan nan nan nan nan nan nan nan nan nan nan nan nan nan nan
nan nan nan nan nan nan nan nan nan nan nan nan nan nan nan nan nan nan nan nan nan nan nan nan nan nan nan nan nan nan nan nan nan nan nan nan nan nan nan nan nan nan nan nan nan nan nan nan nan nan nan nan nan nan nan nan nan nan nan nan nan nan nan nan nan nan nan nan nan nan nan nan nan nan nan nan nan nan nan nan nan nan nan nan nan nan nan
nan nan nan nan nan nan nan nan nan nan nan nan nan nan nan nan nan nan nan nan nan nan nan nan nan nan nan nan nan nan nan nan nan nan nan nan nan nan nan nan nan nan nan nan nan nan nan nan nan nan nan nan nan nan nan nan nan nan nan nan nan nan nan nan nan nan nan nan nan nan nan nan nan nan nan nan nan nan nan nan nan nan nan nan nan nan nan
nan nan nan nan nan nan nan nan nan nan nan nan nan nan nan nan nan nan nan nan nan nan nan nan nan nan nan nan nan nan nan nan nan nan nan nan nan nan nan nan nan nan nan nan nan nan nan nan nan nan nan nan nan nan nan nan nan nan nan nan nan nan nan nan nan nan nan nan nan nan nan nan nan nan nan nan nan nan nan nan nan nan nan nan nan nan nan
nan nan nan nan nan nan nan nan nan nan nan nan nan nan nan nan nan nan nan nan nan nan nan nan nan nan nan nan nan nan nan nan nan nan nan nan nan nan nan nan nan nan nan nan nan nan nan nan nan nan nan nan nan nan nan nan nan nan nan nan nan nan nan nan nan nan nan nan nan nan nan nan nan nan nan nan nan nan nan nan nan nan nan nan nan nan nan
nan nan nan nan nan nan nan nan nan nan nan nan nan nan nan nan nan nan nan nan nan nan nan nan nan nan nan nan nan nan nan nan nan nan nan nan nan nan nan nan nan nan nan nan nan nan nan nan nan nan nan nan nan nan nan nan nan nan nan nan nan nan nan nan nan nan nan nan nan nan nan nan nan nan nan nan nan nan nan nan nan nan nan nan nan nan nan
nan nan nan nan nan nan nan nan nan nan nan nan nan nan nan nan nan nan nan nan nan nan nan nan nan nan nan nan nan nan nan nan nan nan nan nan nan nan nan nan nan nan nan nan nan nan nan nan nan nan nan nan nan nan nan nan nan nan nan nan nan nan nan nan nan nan nan nan nan nan nan nan nan nan nan nan nan nan nan nan nan nan nan nan nan nan nan
nan nan nan nan nan nan nan nan nan nan nan nan nan nan nan nan nan nan nan nan nan nan nan nan nan nan nan nan nan nan nan nan nan nan nan nan nan nan nan nan nan nan nan nan nan nan nan nan nan nan nan nan nan nan nan nan nan nan nan nan nan nan nan nan nan nan nan nan nan nan nan nan nan nan nan nan nan nan nan nan nan nan nan nan nan nan nan
nan nan nan nan nan nan nan nan nan nan nan nan nan nan nan nan nan nan nan nan nan nan nan nan nan nan nan nan nan nan nan nan nan nan nan nan nan nan nan nan nan nan nan nan nan nan nan nan nan nan nan nan nan nan nan nan nan nan nan nan nan nan nan nan nan nan nan nan nan nan nan nan nan nan nan nan nan nan nan nan nan nan nan nan nan nan nan
nan nan nan nan nan nan nan nan nan nan nan nan nan nan nan nan nan nan nan nan nan nan nan nan nan nan nan nan nan nan nan nan nan nan nan nan nan nan nan nan nan nan nan nan nan nan nan nan nan nan nan nan nan nan nan nan nan nan nan nan nan nan nan nan nan nan nan nan nan nan nan nan nan nan nan nan nan nan nan nan nan nan nan nan nan nan nan